Regional Weather Roundup
Issued by NWS

Home | Current Version | Previous Version | Text Only | Print | Product List | Glossary Off
Versions: 1 2 3 4 5 6 7 8 9 10 11 12 13 14 15 16 17 18 19 20 21 22 23 24 25 26 27 28 29 30 31 32 33 34 35 36 37 38 39 40 41 42 43 44 45 46 47 48 49 50

000
ASUS45 KBOI 260210
RWRID

IDAHO REGIONAL WEATHER ROUNDUP
NATIONAL WEATHER SERVICE BOISE ID
700 PM MST SAT FEB 25 2017

NOTE: "FAIR" INDICATES FEW OR NO CLOUDS BELOW 12000 FEET
WITH NO SIGNIFICANT WEATHER AND/OR OBSTRUCTIONS TO VISIBILITY

IDZ012-014-260300-
SOUTHWEST IDAHO


CITY           SKY/WX    TMP DP  RH WIND       PRES   REMARKS
BOISE          CLEAR     36  13  38 CALM      30.00F
CALDWELL       PTCLDY    35  18  49 E5        30.01F WCI  31
MOUNTAIN HOME  CLEAR     32  17  54 W9        30.00F WCI  25
$$

IDZ016-017-260300-
SOUTHCENTRAL IDAHO


CITY           SKY/WX    TMP DP  RH WIND       PRES   REMARKS
BURLEY         CLEAR     27  14  58 SW10      29.96F WCI  17
JEROME           N/A    N/A N/A N/A MISG      29.98F
TWIN FALLS     CLEAR     19  10  68 S8        29.99F WCI   9
$$

IDZ019>023-260300-
SOUTHEAST IDAHO


CITY           SKY/WX    TMP DP  RH WIND       PRES   REMARKS
IDAHO FALLS    PTCLDY    18  12  77 SW15      29.93S WCI   4
POCATELLO      CLEAR     18  10  71 SW10      29.97F WCI   6
REXBURG        CLEAR     16  10  77 SW10      29.91S WCI   4
$$

IDZ006-010-011-018-031-032-260300-
CENTRAL IDAHO MOUNTAINS


CITY           SKY/WX    TMP DP  RH WIND       PRES   REMARKS
MCCALL         CLOUDY    21  11  65 SE6       29.88F WCI  13
HAILEY         PTCLDY    21  12  68 NW5       29.91S WCI  15
STANLEY          N/A     15   9  76 CALM      29.86S
SALMON         MOCLDY    28  12  50 W6        29.87F WCI  22
CHALLIS        CLOUDY    21  11  65 SW5       29.86S WCI  15
$$

IDZ002-004-006-007-026-260300-
NORTHERN IDAHO


CITY           SKY/WX    TMP DP  RH WIND       PRES   REMARKS
LEWISTON       LGT RAIN  35  24  64 SE6       29.97F WCI  30
LOWELL           N/A     32  29  88 CALM      30.02F
COEUR D`ALENE  CLOUDY    31  24  75 S8        29.91  WCI  23
MULLAN PASS    LGT SNOW  14  13  95 VRB7      29.73F FOG     WCI   4
$$



USA.gov is the U.S. government's official web portal to all federal, state and local government web resources and services.